{"data":{"norad_id":47945,"intl_designator":"2021-022P","name":"UNISAT-7","alt_names":[],"object_type":"PAYLOAD","status":"ACTIVE","operator":null,"country":"IT","launch_date":"2021-03-22","launch_site_code":"TYMSC","launch_vehicle":null,"mission":null,"orbit_class":"UNKNOWN","rcs_meters":null,"size_class":null,"mass_kg":null,"dimensions":null,"purposes":[],"wikipedia_slug":null,"has_3d_model":false,"image_url":null,"decayed_at":null,"tle_current":{"epoch":"2026-05-25T03:49:38.633088Z","epoch_age_seconds":61608,"freshness":"FRESH","line1":"1 47945U 21022P   26145.15947492  .00013394  00000+0  33970-3 0  9999","line2":"2 47945  97.3910  49.8526 0010268 145.9652 214.2254 15.39761194286319","mean_motion":15.39761194,"eccentricity":0.0010268,"inclination_deg":97.391,"raan_deg":49.8526,"arg_perigee_deg":145.9652,"mean_anomaly_deg":214.2254,"bstar":0.0003397,"rev_number":28631,"period_min":93.520995697986,"perigee_km":439.80703381953,"apogee_km":453.82275502992,"semimajor_km":6824.9518944247,"source":"CELESTRAK","updated_at":"2026-05-25T13:37:56.627209Z"}}}